{"data":{"norad_id":68428,"intl_designator":"2026-067N","name":"OUT OF THE BOX (OOTB)","alt_names":[],"object_type":"PAYLOAD","status":"ACTIVE","operator":null,"country":"FR","launch_date":"2026-03-30","launch_site_code":"AFWTR","launch_vehicle":null,"mission":null,"orbit_class":"UNKNOWN","rcs_meters":null,"size_class":null,"mass_kg":null,"dimensions":null,"purposes":[],"wikipedia_slug":null,"has_3d_model":false,"image_url":null,"decayed_at":null,"tle_current":{"epoch":"2026-09-20T03:17:02.734944Z","epoch_age_seconds":100303,"freshness":"FRESH","line1":"1 68428U 26067N   26263.13683721  .00002044  00000+0  10087-3 0  9997","line2":"2 68428  97.4684 220.4453 0002959  59.9306 300.2222 15.19026823 26359","mean_motion":15.19026823,"eccentricity":0.0002959,"inclination_deg":97.4684,"raan_deg":220.4453,"arg_perigee_deg":59.9306,"mean_anomaly_deg":300.2222,"bstar":0.00010087,"rev_number":2635,"period_min":94.797536040613,"perigee_km":506.74264550644,"apogee_km":510.8183232737,"semimajor_km":6886.9174843901,"source":"CELESTRAK","updated_at":"2026-09-20T09:00:24.201252Z"}}}